Terminal Aerodrome Forecast
Issued by NWS

Home | Current Version | Previous Version | Graphics & Text | Print | Product List | Glossary On
Versions: 1 2 3 4 5 6 7 8 9 10 11 12 13 14 15 16 17 18
000
FTUS43 KFGF 241100
TAFBJI
TAF
KBJI 241139Z 2412/2512 16010KT P6SM OVC010
     FM241800 15014KT P6SM BKN010=

USA.gov is the U.S. government's official web portal to all federal, state and local government web resources and services.